Location: Unspecified
(43.3830°N, 0.0000°E)
Time: 18:55:23
(UTC+00:00)

Vanguard 2 - Pass Details

Date: 20 June 2019
Orbit: 554 x 2938 km, 32.9° (Epoch: 23 August)

Event Time Altitude Azimuth Distance (km) Brightness Sun altitude
Rises 11:29:55 0° 259° (W) 3,977 11.2 69.0°
Reaches altitude 10° 11:32:21 10° 253° (WSW) 3,272 10.9 69.2°
Maximum altitude 11:40:25 46° 183° (S) 2,274 11.4 69.6°
Drops below altitude 10° 11:53:17 10° 117° (ESE) 5,132 12.0 70.0°
Sets 11:58:11 0° 113° (ESE) 6,422 12.3 70.0°
